This demonstration page uses our WeatherBlox Daily Observations layout. Learn more.

Left ArrowRight Arrow

Hourly Observations for July 26, 2019

Temp ( °F °C ) Dew Point ( °F °C ) Humidity (%) Winds ( mph kmh ) Pressure ( in mb ) Visibility ( mi km ) Precip ( " mm )
12:56 am 00:56 Clear 68 20 60 15.6 76 76 S 9 15 29.97 1015 10 16 0.00 0.00
1:56 am 01:56 Clear 67 19.4 59 15 76 76 S 9 15 29.97 1015 10 16 0.00 0.00
2:56 am 02:56 Clear 66 18.9 58 14.4 75 75 S 9 15 29.96 1015 10 16 0.00 0.00
3:56 am 03:56 Clear 66 18.9 58 14.4 75 75 S 6 9 29.96 1015 10 16 0.00 0.00
4:56 am 04:56 Clear 66 18.9 57 13.9 73 73 SSW 9 15 29.97 1015 10 16 0.00 0.00
5:56 am 05:56 Clear 65 18.3 57 13.9 76 76 S 10 17 29.96 1015 10 16 0.00 0.00
6:56 am 06:56 Sunny 67 19.4 57 13.9 71 71 SSW 13 20 29.96 1015 10 16 0.00 0.00
7:56 am 07:56 Sunny 69 20.6 58 14.4 68 68 SSW 12 19 29.98 1015 10 16 0.00 0.00
8:56 am 08:56 Sunny 72 22.2 59 15 64 64 SSW 13 20 29.99 1016 10 16 0.00 0.00
9:56 am 09:56 Sunny 77 25 61 16.1 58 58 SSW 12 19 30.00 1016 10 16 0.00 0.00
10:56 am 10:56 Sunny 78 25.6 62 16.7 58 58 SSW 13 20 30.01 1016 10 16 0.00 0.00
11:56 am 11:56 Sunny 81 27.2 64 17.8 57 57 S 8 13 30.02 1017 10 16 0.00 0.00
12:56 pm 12:56 Sunny 83 28.3 67 19.4 59 59 S 10 17 30.02 1017 10 16 0.00 0.00
1:56 pm 13:56 Sunny 84 28.9 67 19.4 57 57 S 12 19 30.02 1017 10 16 0.00 0.00
2:56 pm 14:56 Sunny 86 30 67 19.4 53 53 S 13 20 30.01 1016 10 16 0.00 0.00
3:56 pm 15:56 Sunny 87 30.6 66 18.9 50 50 S 12 19 30.00 1016 10 16 0.00 0.00
4:56 pm 16:56 Sunny 88 31.1 66 18.9 48 48 S 14 22 29.99 1016 10 16 0.00 0.00
5:56 pm 17:56 Sunny 86 30 67 19.4 53 53 SSE 9 15 29.97 1015 10 16 0.00 0.00
6:56 pm 18:56 Sunny 82 27.8 69 20.6 65 65 SE 7 11 29.98 1015 10 16 0.00 0.00
7:56 pm 19:56 Sunny 80 26.7 68 20 67 67 SSE 9 15 29.98 1015 10 16 0.00 0.00
8:56 pm 20:56 Sunny 79 26.1 65 18.3 62 62 SSE 6 9 30.00 1016 10 16 0.00 0.00
9:56 pm 21:56 Clear 76 24.4 65 18.3 69 69 SSE 6 9 30.02 1017 10 16 0.00 0.00
10:56 pm 22:56 Clear 73 22.8 63 17.2 71 71 SSE 5 7 30.03 1017 10 16 0.00 0.00
11:56 pm 23:56 Clear 71 21.7 62 16.7 73 73 S 6 9 30.03 1017 10 16 0.00 0.00

Powered by AerisWeather